Retour au catalogue

NOAA 16 DEB

ActifSSO
NORAD 41066·DEBRIS·🇺🇸 United States

Lancé Sep 21, 2000 depuis Vandenberg Space Force Base

Loading…

Prochains Passages (prochaines 24 heures)

TLE

FraisSource: Space-Track

Époque: Sep 14, 2026, 11:05 UTC

1 41066U 00055Z   26257.46218612  .00000568  00000-0  28044-3 0  9999
2 41066  98.6563 335.0739 0015416   8.8350 351.3096 14.21198058558719

Suivez NOAA 16 DEB en temps réel avec AllMySat

Download on the App Store